Location: Loup Canal
(41.4930°N, 97.5670°W)
Time: 22:39:53
(UTC-06:00)

Daily predictions for brighter satellites

Satellite Brightness Start Highest point End
(mag) Time Altitude Azimuth Time Altitude Azimuth Time Altitude Azimuth
Cosmos 2263 Rocket 4.3 17:48:25 10° NW 17:53:26 33° WSW 17:58:24 10° SSW
SMAP 3.0 17:48:57 10° SSE 17:53:34 73° ENE 17:58:14 10° N
SL-16 R/B 4.2 17:51:49 10° WSW 17:56:18 23° NW 18:00:48 10° N
Abrixas rocket 3.6 17:53:32 10° WNW 17:56:42 41° SW 17:59:51 10° SE
Meteor 2-2 Rocket 4.5 17:52:06 10° N 17:57:33 48° ENE 18:02:59 10° SSE
Cosmos 1844 Rocket 2.8 17:52:40 10° NNW 17:58:17 59° ENE 18:03:50 10° SE
Cosmos 44 Rocket 4.1 17:54:12 10° S 17:58:51 36° ESE 18:03:28 10° NE
Lacrosse 5 3.4 17:54:38 10° W 17:58:54 27° NNW 18:03:12 10° NNE
CZ-3A R/B 3.8 17:54:28 10° NW 17:59:44 29° NNE 18:03:56 10° E
COSMO-SKYMED 1 3.4 17:58:33 10° NNE 18:02:25 31° E 18:06:17 10° SSE
YAOGAN 1 2.5 17:59:32 10° SSE 18:03:51 81° ENE 18:08:12 10° N
Cosmos 2333 4.2 17:58:29 10° SSW 18:04:03 72° ESE 18:09:39 10° NNE
CZ-2C R/B 2.7 17:59:07 10° S 18:04:08 78° WSW 18:09:02 10° NNW
Cosmos 2228 Rocket 3.0 18:03:33 10° N 18:07:57 66° E 18:12:22 10° SSE
Cosmos 2360 Rocket 3.5 18:07:08 10° SW 18:12:23 39° WNW 18:17:40 10° N
Cosmos 1408 Rocket 4.4 18:08:52 10° SSW 18:13:14 56° W 18:17:37 10° N
Cosmos 1980 4.3 18:08:29 10° S 18:13:36 36° ESE 18:18:45 10° NE
Milstar 3 4.4 18:08:07 10° WSW 18:13:51 27° S 18:19:30 10° SE
SJ-6B 4.3 18:11:24 10° ESE 18:14:10 18° ENE 18:16:56 10° NNE
USA 116 3.9 18:12:14 10° N 18:15:27 56° WNW 18:18:29 10° SSW
CZ-4 R/B 4.4 18:11:34 10° SSE 18:15:43 84° ENE 18:19:52 10° N
Cosmos 389 Rocket 3.5 18:13:40 10° NNW 18:17:10 50° W 18:20:36 10° S
Cosmos 2058 3.9 18:17:17 10° SE 18:20:39 25° E 18:24:02 10° NE
COSMOS 2441 4.4 18:18:32 10° SSE 18:23:25 90° WSW 18:28:18 10° NNW
Cosmos 2333 Rocket 2.3 18:20:29 10° S 18:25:58 55° ESE 18:31:29 10° NNE
Atlas Centaur 2 4.2 18:23:53 10° SW 18:26:43 15° SSW 18:29:15 10° S
Cosmos 1763 Rocket 3.8 18:21:48 10° SSW 18:27:00 69° WNW 18:32:11 10° NNE
Cosmos 2346 Rocket 4.5 18:21:54 10° S 18:28:10 79° E 18:34:25 10° N
Meteor 2-10 4.3 18:29:53 10° N 18:34:40 40° ENE 18:39:32 10° SE
Cosmos 372 Rocket 4.3 18:29:53 10° N 18:34:43 41° ENE 18:39:31 10° SE
DNEPR-1 R/B 4.5 18:28:08 10° SSW 18:35:11 72° ESE 18:40:41 11° NE
Cosmos 1743 Rocket 3.9 18:30:53 10° SSW 18:35:20 69° W 18:39:49 10° N
METEOR-M 4.4 18:33:19 10° SE 18:38:21 43° ENE 18:43:22 10° N
Cosmos 2219 Rocket 2.2 18:33:38 10° SSW 18:39:18 90° WNW 18:44:58 10° NNE
Cosmos 1328 Rocket 4.3 18:36:15 10° NNW 18:40:37 56° W 18:44:58 10° S
Meteor 1-27 4.4 18:35:57 10° N 18:41:37 51° ENE 18:47:17 10° SSE
BREEZE-M DEB (TANK) 1.2 18:40:10 10° WSW 18:43:07 87° NW 18:43:55 34° ENE
Cosmos 1340 Rocket 3.4 18:39:44 10° SSE 18:43:18 33° E 18:45:23 20° NE
Cosmos 2278 Rocket 2.2 18:39:10 10° NNW 18:44:48 62° ENE 18:50:25 10° SE
Cosmos 2151 2.8 18:42:16 10° S 18:46:27 70° E 18:50:39 10° NNE
Abrixas 3.8 18:44:28 10° SSW 18:46:53 24° SE 18:47:20 23° SE
Cosmos 540 Rocket 3.4 18:42:22 10° S 18:47:29 65° ESE 18:52:36 10° NNE
Cosmos 1515 Rocket 4.1 18:43:11 10° NNW 18:47:37 64° W 18:52:01 10° S
Cosmos 332 Rocket 4.4 18:45:08 10° SSW 18:49:52 57° WNW 18:54:40 10° NNE
SKYMED 2 3.7 18:46:17 10° N 18:50:39 76° WNW 18:54:57 10° SSW
SL-14 R/B 3.1 18:48:04 10° S 18:51:58 81° E 18:55:57 10° N
Cosmos 1626 3.7 18:50:57 10° SE 18:52:36 19° ESE 18:52:36 19° ESE
USA 215 3.2 18:47:39 10° SE 18:54:12 79° NE 19:00:46 10° NW
Cosmos 1805 Rocket 4.0 18:50:37 10° SSE 18:54:44 38° E 18:57:08 21° NE
Cosmos 1844 4.2 18:50:09 10° NNW 18:55:51 64° WSW 19:01:34 10° S
Cosmos 1151 Rocket 3.2 18:52:44 10° NNW 18:57:00 75° W 19:01:16 10° S
Cosmos 1484 Rocket 4.0 18:53:18 10° S 18:57:02 44° W 19:00:51 10° NNW
Cosmos 1125 Rocket 3.7 18:59:42 10° NNW 19:04:55 74° WSW 19:10:04 10° S
Timation 1 Rocket 4.5 18:59:12 10° NNW 19:05:03 50° ENE 19:10:29 12° SE
NOAA 12 4.0 19:00:11 10° SSE 19:05:25 81° ENE 19:10:42 10° NNW
BREEZE M DEB (TANK) 1.9 19:03:45 10° NW 19:05:47 44° NNW 19:05:47 44° NNW
COSMOS 2428 4.3 19:01:54 10° WSW 19:07:00 32° WNW 19:12:07 10° N
Cosmos 1300 3.5 19:05:53 10° NNW 19:09:38 52° W 19:13:21 10° S
ALOS 2.6 19:05:16 10° SE 19:09:38 41° ENE 19:14:01 10° N
Cosmos 2237 Rocket 2.2 19:04:23 10° SSW 19:10:00 84° WNW 19:14:53 14° NNE
Cosmos 1726 3.2 19:07:42 10° NNW 19:11:20 47° W 19:14:57 10° SSW
Cosmos 44 3.4 19:06:51 10° SSW 19:12:09 84° WNW 19:15:09 25° NNE
SL-16 R/B 2.4 19:09:21 10° S 19:14:42 45° ESE 19:16:18 36° ENE
Spot 2 Rocket 3.7 19:10:21 10° SE 19:15:08 45° ENE 19:19:56 10° N
Sich 1 3.5 19:14:26 10° SSE 19:17:57 41° ESE 19:17:57 41° ESE
Lacrosse 5 rocket 1.2 19:15:43 10° NW 19:19:24 59° NE 19:19:24 59° NE
OTV 4 2.1 19:18:03 10° WSW 19:20:35 26° SSW 19:20:41 26° SSW
Transit 2A Rocket 4.3 19:17:10 10° NNW 19:21:32 84° ENE 19:23:23 33° SSE
Cosmos 1633 Rocket 4.2 19:17:38 10° SSE 19:20:05 29° SE 19:20:05 29° SE
FREGAT/IRIS 4.5 19:18:57 10° S 19:25:10 - NNW 19:20:10 22° S
Cosmos 1538 Rocket 4.2 19:17:18 10° S 19:22:18 45° ESE 19:22:41 44° E
Cosmos 2297 3.7 19:18:13 10° NNW 19:23:53 61° ENE 19:27:01 27° SE
NOSS 0 Rocket 4.5 19:21:10 10° SW 19:27:15 57° WNW 19:32:50 13° NNE
SL-19 R/B 4.2 19:24:37 10° SSE 19:30:38 82° ENE 19:36:19 10° NNW
Resurs 01 Rocket 1.8 19:31:56 54° NNE 19:31:56 54° NNE 19:35:35 10° N
USA 229 DEB 4.4 19:26:28 10° S 19:31:47 32° ESE 19:31:47 32° ESE
USA 229 4.4 19:26:35 10° S 19:31:49 32° ESE 19:31:49 32° ESE
Aureole 2 Rocket 3.3 19:34:27 10° SW 19:38:00 53° WNW 19:38:34 48° NW
CENTAUR R/B 4.2 19:35:14 10° W 19:40:34 27° NW 19:45:38 13° NNE
Cosmos 1707 Rocket 3.6 19:38:36 10° N 19:42:57 76° W 19:47:15 10° S
Lacrosse 5 4.0 19:40:52 10° NW 19:43:29 14° N 19:44:00 14° N
SJ-6B 4.3 19:44:44 10° SSW 19:48:31 38° W 19:52:22 10° NNW
Cosmos 1461 3.9 19:44:20 10° SSW 19:47:02 38° SSW 19:47:02 38° SSW
FengYun 1-2 T 4.3 19:46:25 10° S 19:51:59 76° WSW 19:57:32 10° NNW
Cosmos 1666 Rocket 4.0 19:49:02 10° SSW 19:52:39 57° SW 19:52:39 57° SW
H-2A ROCKET BODY 3.8 19:44:22 10° WSW 20:00:18 33° SSW 20:02:29 27° SSE
FENGYUN 3A 4.1 20:00:39 10° S 20:05:55 60° W 20:11:15 10° NNW
Cosmos 2333 Rocket 4.2 20:06:05 10° WSW 20:10:35 24° NW 20:14:23 13° N
SL-16 R/B 4.0 20:54:13 10° WSW 20:58:15 27° WNW 20:58:15 27° WNW
